1999 FB   

Epoch 1999 Mar. 23.0 TT = JDT 2451260.5                 Nakano

M  71.76702              (2000.0)            P               Q

n   0.76884974     Peri.    2.89843     +0.76559995     -0.62898385

a   1.1800717      Node    37.20989     +0.58564932     +0.59457589

e   0.6069361      Incl.   12.90324     +0.26621719     +0.50085810

P   1.28           H   17.3           G   0.15           U   *

Residuals in seconds of arc 

990316 704  0.2+  0.9-    990317 611  0.2-  0.2+    990321 860 (2.3-  0.7-) 

990316 704  1.7+  0.2-    990318 046  0.2+  0.1+    990322 360  0.5-  0.6+  

990316 704  1.2+  0.5-    990318 046  0.2+  0.2+    990322 360  0.6-  0.6+  

990316 704  0.0   1.2-    990318 046  0.8+  0.1+    990322 360  0.6-  0.5+  

990316 704  0.6+  0.9-    990318 046  0.3+  0.6+    990324 118  0.2-  0.1-  

990316 620  1.7-  0.5-    990318 734  0.4-  0.3-    990324 118  0.1-  0.1+  

990316 620  0.0   0.2+    990318 734  0.7-  0.0     990324 118  0.2-  0.1-  

990316 620  2.0+  1.1+    990318 734  0.4-  0.4-    990325 046  0.3-  0.5+  

990316 620 (3.4+  1.8+)   990318 713  0.2-  1.0+    990325 046  0.5+  0.2+  

990317 758  0.5-  0.3+    990318 696  0.5-  0.0     990325 046  0.0   0.1+  

990317 758  0.2+  1.0+    990318 696  0.4-  0.0     990325 046  0.2+  0.0   

990317 758  0.6+  1.0-    990318 696  0.3-  0.1-    990326 620  0.3-  1.0-  

990317 761  0.5-  0.7+    990318 696  0.5-  0.1-    990326 620  0.8+  0.0   

990317 761 (2.4+  1.9+)   990318 696  0.5-  0.0     990326 620  1.2+  0.5-  

990317 422  0.3-  0.4-    990318 713  0.9-  0.4+    990326 118  0.9+  0.1+  

990317 422  0.2-  0.7-    990318 046  0.3-  0.5+    990326 118  0.2+  0.1+  

990317 422  0.5+  0.6-    990318 046  0.6-  0.2+    990326 118  1.7+  0.2+  

990317 422  0.2+  0.0     990318 046  0.3-  0.0     990327 402  0.1+  1.0-  

990317 402  0.2-  0.2-    990318 046  0.5-  0.1+    990327 402  0.3+  0.1-  

990317 402  0.2+  0.2-    990319 620  0.4-  0.3+    990404 402  0.6+  0.4-  

990317 402  0.0   0.5-    990319 620  0.5-  0.6+    990404 402  0.2-  0.6+  

990317 402  0.1-  0.4-    990319 620  0.5-  0.8+    990404 402  0.4+  0.2-  

990317 900  0.0   0.2-    990319 620  0.5-  1.1+    990405 360  0.2-  0.4-  

990317 900  0.3-  0.3-    990320 587  0.8-  0.4-    990405 360  0.3-  0.1+  

990317 557  0.1-  0.2-    990320 587  1.3-  0.2-    990405 360  0.3-  0.2+  

990317 557  0.1-  0.0     990321 104  0.6+  0.2+    990405 046  0.2-  0.1-  

990317 557  0.1+  0.1-    990321 104  1.7+  0.1+    990405 046  0.7-  0.1+  

990317 611  0.9+  1.0+    990321 860  0.4+  0.1-    990405 046  0.1+  0.3+  

990317 611  0.7+  0.8+    990321 860  0.4-  1.0-    990405 046  0.5-  0.2-  

 





1999 FB   

Epoch 1999 Mar. 23.0 TT = JDT 2451260.5                 Nakano

M  71.91316              (2000.0)            P               Q

n   0.77009847     Peri.    2.80797     +0.76515597     -0.62957008

a   1.1787957      Node    37.33727     +0.58629986     +0.59478532

e   0.6057201      Incl.   12.84407     +0.26606167     +0.49987192

P   1.28           H   17.3           G   0.15           U   *

 





1999 FB   

Epoch 1999 Mar. 23.0 TT = JDT 2451260.5                 Nakano

M  71.86844              (2000.0)            P               Q

n   0.76974504     Peri.    2.82657     +0.76525050     -0.62944345

a   1.1791565      Node    37.31080     +0.58616238     +0.59473502

e   0.6060631      Incl.   12.85729     +0.26609271     +0.50009119

P   1.28           H   17.5           G   0.15           U   *

 





–ß‚è‚Ü‚·B